Ondarroa, Spain
Current Conditions -  °F | °C
As of 7:00 AM on Friday 31 Oct 2014 (Local Time) from LEBB Reporting Station
Scattered Clouds Scattered Clouds  
Wind Chill: 66°   Ceiling: Unl
Heat Index: 66°   Visibility: 6mi
Dew Point: 52°   Wind: 3mph
Humidity: 60%   Direction: 140°SE
Pressure: 30.09"   Gusts: NA
Location:  43.32°N, 2.42°W
Report Text: LEBB 310600Z 14003KT 080V210 9999 SCT050 19/11 Q1019 NOSIG
Loading
Personal Weather Stations






























Interactive Weather Map
Tropical Storm Tracking
New forecast layout! Learn more

10-Day Weather Forecast

Advertisements
Track Severe Weather on mobile